Date String (YYYY-MM-DD hh:mm:ss) UTC,Instrument flags,Ambient pressure (hPa),Sample flow (lpm),Bypass flow (lpm),Sample temperature (°C),Ambient temperature (°C),ASC tube jacket temperature (°C),LED temperature (°C),Box temperature (°C),Sample RH (%),Span deviation,Mass concentration (μg/m³),Mass concentration (μg/m³),Mass concentration (μg/m³)
DateTimeUTC,F1_M11,P_M11,Q1_M11,Q2_M11,T1_M11,T2_M11,T3_M11,T4_M11,T5_M11,U1_M11,ZSPAN_M11,X0_M11,X2_M11,X1_M11
2022-04-14 20:00:00,,0819.2,4.99,0.00,22.7,21.7,00.0,31.6,24.5,07.8,0000.0,0010.16,0004.26,0003.07
2022-04-14 20:01:00,,0819.2,5.01,0.00,22.7,21.7,00.0,31.6,24.5,07.8,0000.0,0010.73,0004.23,0003.06
2022-04-14 20:02:00,,0819.2,4.99,0.00,22.7,21.7,00.0,31.6,24.6,07.9,0000.0,0010.56,0004.26,0003.07
2022-04-14 20:03:00,,0819.2,4.99,0.00,22.8,21.8,00.0,31.6,24.6,07.8,0000.0,0010.47,0004.27,0003.08
2022-04-14 20:04:00,,0819.2,4.99,0.00,22.8,21.7,00.0,31.6,24.6,07.7,0000.0,0010.71,0004.29,0003.07
2022-04-14 20:05:00,,0819.3,5.01,0.00,22.8,21.8,00.0,31.6,24.6,07.8,0000.0,0011.17,0004.31,0003.05
2022-04-14 20:06:00,,0819.2,5.01,0.00,22.8,21.7,00.0,31.6,24.6,07.9,0000.0,0011.13,0004.30,0003.05
2022-04-14 20:07:00,,0819.1,4.99,0.00,22.8,21.8,00.0,31.6,24.6,07.9,0000.0,0010.83,0004.34,0003.09
2022-04-14 20:08:00,,0819.2,5.01,0.00,22.8,21.8,00.0,31.7,24.6,08.0,0000.0,0010.84,0004.37,0003.11
2022-04-14 20:09:00,,0819.2,5.01,0.00,22.8,21.8,00.0,31.7,24.6,07.9,0000.0,0010.92,0004.38,0003.12
2022-04-14 20:10:00,,0819.3,4.98,0.00,22.8,21.9,00.0,31.7,24.6,07.8,0000.0,0011.30,0004.40,0003.12
2022-04-14 20:11:00,,0819.3,5.01,0.00,22.8,21.9,00.0,31.7,24.6,07.9,0000.0,0010.93,0004.37,0003.12
2022-04-14 20:12:00,,0819.2,5.00,0.00,22.9,21.9,00.0,31.7,24.6,07.9,0000.0,0010.41,0004.44,0003.12
2022-04-14 20:13:00,,0819.2,4.99,0.00,22.9,21.9,00.0,31.7,24.6,08.0,0000.0,0010.35,0004.40,0003.12
2022-04-14 20:14:00,,0819.2,5.00,0.00,22.9,21.9,00.0,31.7,24.7,07.9,0000.0,0010.46,0004.36,0003.12
2022-04-14 20:15:00,,0819.1,5.00,0.00,22.9,21.9,00.0,31.7,24.7,07.9,0000.0,0010.57,0004.40,0003.13
2022-04-14 20:16:00,,0819.1,4.99,0.00,22.9,21.9,00.0,31.8,24.7,07.9,0000.0,0010.24,0004.39,0003.14
2022-04-14 20:17:00,,0819.0,5.00,0.00,22.9,21.9,00.0,31.8,24.7,07.8,0000.0,0010.17,0004.36,0003.15
2022-04-14 20:18:00,,0819.0,5.01,0.00,22.9,22.0,00.0,31.8,24.7,07.8,0000.0,0010.47,0004.33,0003.13
2022-04-14 20:19:00,,0819.1,5.00,0.00,22.9,22.0,00.0,31.8,24.8,07.8,0000.0,0010.47,0004.27,0003.12
2022-04-14 20:20:00,,0819.2,4.99,0.00,22.9,22.0,00.0,31.8,24.7,07.9,0000.0,0010.59,0004.25,0003.13
2022-04-14 20:21:00,,0819.2,5.01,0.00,22.9,22.0,00.0,31.8,24.8,08.1,0000.0,0010.08,0004.22,0003.14
2022-04-14 20:22:00,,0819.2,4.99,0.00,23.0,22.1,00.0,31.8,24.8,07.9,0000.0,0010.03,0004.22,0003.14
2022-04-14 20:23:00,,0819.4,5.02,0.00,23.0,22.1,00.0,31.8,24.8,07.7,0000.0,0010.09,0004.22,0003.15
2022-04-14 20:24:00,,0819.3,4.99,0.00,23.0,22.1,00.0,31.8,24.8,07.5,0000.0,0010.02,0004.18,0003.14
2022-04-14 20:25:00,,0819.2,5.00,0.00,23.0,22.1,00.0,31.9,24.9,07.3,0000.0,0009.66,0004.13,0003.12
2022-04-14 20:26:00,,0819.2,4.99,0.00,23.0,22.1,00.0,31.9,24.9,07.3,0000.0,0009.43,0004.08,0003.11
2022-04-14 20:27:00,,0819.2,5.02,0.00,23.0,22.1,00.0,31.9,24.9,07.4,0000.0,0009.31,0004.09,0003.10
2022-04-14 20:28:00,,0819.2,5.00,0.00,23.1,22.2,00.0,31.9,24.9,07.9,0000.0,0009.43,0004.12,0003.08
2022-04-14 20:29:00,,0819.4,5.00,0.00,23.1,22.1,00.0,31.9,24.9,07.9,0000.0,0009.42,0004.20,0003.07
2022-04-14 20:30:00,,0819.2,5.01,0.00,23.1,22.2,00.0,31.9,24.9,07.5,0000.0,0009.82,0004.21,0003.06
2022-04-14 20:31:00,,0819.2,5.00,0.00,23.1,22.2,00.0,31.9,25.0,07.2,0000.0,0009.74,0004.20,0003.04
2022-04-14 20:32:00,,0819.2,4.99,0.00,23.1,22.2,00.0,32.0,24.9,07.5,0000.0,0009.76,0004.20,0003.02
2022-04-14 20:33:00,,0819.2,4.99,0.00,23.1,22.2,00.0,32.0,24.9,07.9,0000.0,0009.76,0004.19,0002.99
2022-04-14 20:34:00,,0819.2,5.02,0.00,23.1,22.2,00.0,32.0,24.9,08.2,0000.0,0009.58,0004.13,0002.99
2022-04-14 20:35:00,,0819.3,4.99,0.00,23.1,22.2,00.0,32.0,24.9,08.3,0000.0,0009.97,0004.15,0003.00
2022-04-14 20:36:00,,0819.1,5.01,0.00,23.1,22.3,00.0,32.0,24.9,07.6,0000.0,0010.29,0004.17,0003.00
2022-04-14 20:37:00,,0819.0,5.01,0.00,23.2,22.3,00.0,32.0,25.0,07.5,0000.0,0010.22,0004.14,0002.99
2022-04-14 20:38:00,,0819.1,4.99,0.00,23.2,22.3,00.0,32.0,25.0,07.3,0000.0,0010.26,0004.12,0002.96
2022-04-14 20:39:00,,0819.0,4.99,0.00,23.2,22.2,00.0,32.0,25.0,07.4,0000.0,0010.47,0004.12,0002.94
2022-04-14 20:40:00,,0818.9,5.00,0.00,23.2,22.2,00.0,32.0,25.0,07.3,0000.0,0010.57,0004.02,0002.91
2022-04-14 20:41:00,,0818.9,5.01,0.00,23.2,22.3,00.0,32.0,25.0,07.3,0000.0,0010.04,0004.00,0002.89
2022-04-14 20:42:00,,0819.0,4.99,0.00,23.2,22.3,00.0,32.0,25.0,07.2,0000.0,0009.83,0004.02,0002.88
2022-04-14 20:43:00,,0819.0,5.01,0.00,23.2,22.2,00.0,32.0,24.9,07.3,0000.0,0009.90,0004.00,0002.87
2022-04-14 20:44:00,,0819.0,5.01,0.00,23.2,22.2,00.0,32.1,24.9,07.5,0000.0,0009.92,0004.01,0002.84
2022-04-14 20:45:00,,0819.0,5.00,0.00,23.2,22.3,00.0,32.1,25.0,07.5,0000.0,0010.59,0004.01,0002.81
2022-04-14 20:46:00,,0818.9,5.00,0.00,23.2,22.3,00.0,32.1,25.0,07.4,0000.0,0010.39,0003.97,0002.78
2022-04-14 20:47:00,,0818.9,5.01,0.00,23.2,22.3,00.0,32.1,25.0,07.4,0000.0,0010.48,0003.97,0002.77
2022-04-14 20:48:00,,0818.9,5.00,0.00,23.2,22.3,00.0,32.1,25.0,07.4,0000.0,0010.94,0003.97,0002.77
2022-04-14 20:49:00,,0818.9,5.01,0.00,23.2,22.3,00.0,32.1,25.0,07.5,0000.0,0010.78,0003.95,0002.78
2022-04-14 20:50:00,,0819.0,4.99,0.00,23.2,22.3,00.0,32.1,25.0,07.5,0000.0,0010.75,0003.91,0002.76
2022-04-14 20:51:00,,0819.0,5.01,0.00,23.2,22.3,00.0,32.1,25.0,07.4,0000.0,0010.52,0003.92,0002.77
2022-04-14 20:52:00,,0818.9,4.99,0.00,23.2,22.3,00.0,32.1,25.0,07.6,0000.0,0010.57,0003.91,0002.76
2022-04-14 20:53:00,,0818.9,4.99,0.00,23.2,22.3,00.0,32.1,25.0,07.5,0000.0,0010.47,0003.93,0002.77
2022-04-14 20:54:00,,0818.8,5.00,0.00,23.2,22.3,00.0,32.1,25.0,07.4,0000.0,0010.26,0003.89,0002.77
2022-04-14 20:55:00,,0818.9,5.01,0.00,23.2,22.2,00.0,32.1,25.0,07.3,0000.0,0010.23,0003.87,0002.78
2022-04-14 20:56:00,,0818.9,4.99,0.00,23.2,22.2,00.0,32.1,25.0,07.2,0000.0,0009.64,0003.87,0002.76
2022-04-14 20:57:00,,0818.9,5.01,0.00,23.2,22.2,00.0,32.1,25.0,07.2,0000.0,0010.38,0003.91,0002.75
2022-04-14 20:58:00,,0819.0,5.00,0.00,23.2,22.3,00.0,32.1,25.0,07.4,0000.0,0010.28,0003.95,0002.74
2022-04-14 20:59:00,,0818.9,5.00,0.00,23.2,22.3,00.0,32.1,24.9,07.5,0000.0,0011.09,0004.04,0002.75
